Location: *
(49.3167°S, 165.0000°W)
Time: 02:53:36
(UTC+00:00)

Daily predictions for brighter satellites

Satellite Brightness Start Highest point End
(mag) Time Altitude Azimuth Time Altitude Azimuth Time Altitude Azimuth
Cosmos 1452 Rocket 4.2 03:43:56 10° NW 03:49:08 56° WSW 03:54:24 10° SSE
Cosmos 2100 Rocket 4.4 03:43:17 10° S 03:49:21 44° ESE 03:55:17 10° NE
Cosmos 2058 3.1 03:45:10 10° NNW 03:49:22 82° W 03:53:37 10° S
Envisat 3.1 03:46:31 10° SSE 03:51:43 83° ENE 03:56:51 10° NNW
Cosmos 2221 2.6 03:50:39 10° S 03:55:09 71° E 03:59:34 10° NNE
CZ-2C R/B 3.1 03:51:01 10° SSE 03:55:46 51° E 04:00:35 10° N
Cosmos 1812 4.0 03:53:10 10° SSE 03:56:13 21° ESE 03:59:14 10° ENE
Cosmos 1980 Rocket 2.4 03:51:21 10° SSW 03:56:50 47° SE 04:02:15 10° NE
SJ 16-02 3.0 03:55:26 10° SSE 03:58:07 15° SE 04:00:47 10° E
Cosmos 1842 Rocket 3.6 03:54:20 10° S 03:58:50 61° ESE 04:03:12 10° NNE
Landsat 4 3.9 03:55:43 10° SSE 03:59:33 75° WSW 04:03:22 10° NNW
H-2A R/B 2.8 03:56:39 10° SSE 04:00:34 85° ENE 04:04:28 10° NNW
Aureole 1 Rocket 4.3 03:57:11 10° SSW 04:04:35 53° ESE 04:10:23 10° NE
Cosmos 2322 Rocket 3.6 04:01:42 10° S 04:05:39 18° SE 04:09:31 10° E
SKYMED 2 3.6 04:01:19 10° NNE 04:05:42 85° ESE 04:10:10 10° SSW
DMSP B5D2-2 4.1 04:01:33 10° NNE 04:06:45 64° ESE 04:12:01 10° S
ARIANE 5 R/B 4.4 04:05:22 10° S 04:09:47 28° WSW 04:14:13 10° WNW
USA 306 2.9 04:05:39 10° WSW 04:09:54 83° NNW 04:14:07 10° ENE
NOAA 11 4.2 04:05:24 10° SSE 04:10:55 66° ENE 04:16:23 10° N
Lacrosse 4 Rocket 3.2 04:07:22 10° W 04:11:02 26° SW 04:14:49 10° SSE
Cosmos 2369 3.7 04:06:35 10° SSW 04:12:20 67° ESE 04:18:00 10° NE
GENESIS II 4.1 04:08:33 10° SW 04:12:21 85° NW 04:16:04 10° NE
Cosmos 2082 Rocket 2.9 04:07:34 10° N 04:12:35 34° ENE 04:17:38 10° SE
RESURS DK-1 2.6 04:09:48 10° SSW 04:13:53 47° SE 04:17:57 10° NE
Cosmos 1697 Rocket 3.0 04:09:00 10° SSW 04:14:44 77° WNW 04:20:24 10° NNE
H-2A R/B 4.2 04:15:23 10° SE 04:15:23 10° SE 04:15:40 10° SE
USA 307 2.9 04:10:53 10° WSW 04:15:09 86° NNW 04:19:23 10° ENE
Cosmos 2333 Rocket 4.0 04:13:27 10° S 04:15:52 13° SSE 04:17:58 11° SE
USA 215 3.3 04:09:33 10° ENE 04:16:08 71° SSE 04:22:44 10° WSW
Cosmos 2061 Rocket 4.4 04:12:30 10° S 04:18:33 40° ESE 04:24:28 10° NE
H-2A R/B 3.3 04:15:00 10° SE 04:18:34 19° E 04:22:06 10° NE
Cosmos 1725 Rocket 4.4 04:13:17 10° S 04:19:14 41° ESE 04:25:10 10° NE
CZ-4B R/B 4.2 04:18:43 10° S 04:23:31 53° WSW 04:28:11 10° NW
Lacrosse 5 2.6 04:19:00 10° WSW 04:23:50 39° SSE 04:27:34 16° ESE
Cosmos 2219 Rocket 4.1 04:23:42 10° S 04:25:33 11° SSE 04:27:05 10° SE
ADEOS 4.2 04:24:05 10° SSE 04:28:56 35° E 04:33:43 10° NNE
ERBS 2.5 04:26:08 10° SW 04:29:12 43° SSE 04:31:01 20° E
Cosmos 1340 Rocket 3.0 04:29:36 10° NNW 04:33:40 77° WSW 04:37:49 10° S
Cosmos 1000 Rocket 4.4 04:30:46 10° N 04:36:55 72° E 04:43:11 10° SSE
Meteor 1-31 Rocket 2.7 04:34:18 10° SSE 04:38:20 81° ENE 04:42:18 10° NNW
BREEZE M DEB (TANK) 3.4 04:37:55 10° NNW 04:39:37 21° NE 04:40:10 19° ENE
Cosmos 2151 2.9 04:37:07 10° N 04:41:26 70° E 04:45:48 10° SSE
Cosmos 1607 4.3 04:38:12 10° NW 04:44:27 65° SW 04:50:16 13° SE
USA 308 3.4 04:41:50 10° WSW 04:46:01 58° NNW 04:50:09 10° NE
SL-16 R/B 2.8 04:42:18 10° SSW 04:47:35 36° SE 04:51:25 17° ENE
TIMED 4.5 04:43:54 10° NNW 04:48:15 67° ENE 04:51:41 16° SSE
CBERS 1 LM4 rocket 4.3 04:45:16 10° SSE 04:50:09 79° ENE 04:55:05 10° NNW
COSMO-SKYMED 1 4.5 04:49:54 10° NNW 04:53:53 33° W 04:57:56 10° SSW
COSMOS 2406 3.2 04:48:28 10° NNW 04:54:11 88° WSW 04:59:25 13° SSE
Landsat 5 3.5 04:51:25 10° NNE 04:55:53 83° ESE 05:00:15 10° SSW
Cosmos 1777 Rocket 4.3 04:52:29 10° SSW 04:57:33 43° ESE 05:01:59 13° NE
Cosmos 2173 Rocket 4.4 04:52:30 10° SSW 04:58:53 69° W 05:05:07 10° N
Cosmos 1782 3.3 04:56:06 10° SSW 05:00:05 61° W 05:04:01 10° N
Cosmos 2016 Rocket 4.0 04:55:23 10° S 05:01:42 86° E 05:08:02 10° N
Cosmos 1833 Rocket 3.4 04:56:36 10° NW 05:02:08 53° SW 05:07:41 10° SSE
Cosmos 1354 Rocket 3.9 04:58:28 10° SSW 05:03:47 70° ESE 05:09:03 10° NNE
Cosmos 1328 Rocket 4.3 04:59:52 10° S 05:03:12 31° SE 05:03:12 31° SE
SeaSat 1 4.2 05:00:10 10° SSE 05:04:18 27° SW 05:08:23 10° W
USA 305 4.3 05:03:17 10° WSW 05:07:11 37° NW 05:11:04 10° NNE
Cosmos 2233 Rocket 4.0 05:01:38 10° S 05:07:54 61° ESE 05:14:10 10° NNE
Cosmos 1992 Rocket 4.0 05:02:39 10° NNW 05:07:56 85° WSW 05:12:24 15° SSE
Cosmos 2360 Rocket 3.1 05:04:13 10° SSW 05:09:05 28° SE 05:09:28 28° SE
SMAP 3.2 05:06:12 21° SSE 05:09:12 52° E 05:13:47 10° N
Cosmos 1939 Rocket 2.9 05:05:48 11° S 05:09:37 78° WSW 05:13:31 10° NNW
Cosmos 2278 3.7 05:04:23 10° SSW 05:10:09 87° WNW 05:15:50 10° NNE
Lacrosse 5 rocket 1.9 05:08:27 10° SW 05:12:15 37° SSE 05:12:32 36° SSE
Meteor 1-10 Rocket 4.2 05:08:23 10° S 05:14:05 57° ESE 05:19:36 10° NNE
Cosmos 1151 Rocket 3.0 05:12:19 10° S 05:16:47 64° ESE 05:21:09 10° NNE
Meteor PRIRODA 3.5 05:16:58 40° SSE 05:18:14 78° ENE 05:21:58 10° N
Meteor 1-27 Rocket 4.0 05:15:36 10° S 05:20:56 42° ESE 05:22:24 35° ENE
USA 281 3.3 05:21:17 25° SE 05:25:10 54° ENE 05:31:38 10° N
Orbus 7S? 3.1 05:25:10 10° SW 05:28:30 59° SW 05:28:30 59° SW
CZ-2D R/B 3.1 05:30:12 69° NE 05:30:12 69° NE 05:33:51 10° N
ARGOS 3.4 05:30:54 45° E 05:31:06 45° E 05:36:17 10° N
Cosmos 1812 4.4 05:28:25 10° SSW 05:32:00 35° W 05:35:33 10° NNW
CZ-4B R/B 2.7 05:34:48 69° S 05:35:13 84° WSW 05:39:07 10° NNW
SJ 16-02 1.3 05:32:50 10° SSW 05:37:20 85° WNW 05:39:38 28° NNE
Cosmos 1980 Rocket 3.9 05:35:39 10° SW 05:40:41 34° WNW 05:45:40 10° NNW
Meteor 2-6 Rocket 4.5 05:35:07 10° SSW 05:40:45 67° W 05:46:10 10° N
CZ-4C R/B 4.1 05:41:47 10° N 05:44:54 42° W 05:48:10 10° SSW
H-2A R/B 3.8 05:52:26 24° S 05:52:26 24° S 05:54:17 10° S
Cosmos 2322 Rocket 2.1 05:45:03 10° SSW 05:50:49 69° ESE 05:51:24 64° E
Cosmos 1900 4.4 05:49:15 10° SW 05:54:09 75° NW 05:54:57 60° N
Cosmos 2082 Rocket 3.0 05:51:04 10° NW 05:56:31 47° SW 05:59:35 25° S
H-2A R/B 2.3 05:55:24 23° S 05:58:28 63° WSW 06:03:21 10° NNW
USA 215 4.0 05:53:47 14° NNE 05:59:21 49° NW 06:05:46 10° WSW
Cosmos 2333 Rocket 3.4 05:56:33 10° SSW 05:59:59 30° S 05:59:59 30° S
Cosmos 1766 Rocket 4.4 06:01:42 10° NNW 06:04:50 45° NNW 06:04:50 45° NNW
IRIDIUM 104 4.4 06:01:11 10° N 06:06:27 77° W 06:09:31 26° S
Lacrosse 5 2.0 06:02:09 10° SW 06:06:47 71° SW 06:06:47 71° SW
Cosmos 2219 Rocket 3.7 06:06:12 10° SSW 06:08:49 23° S 06:08:49 23° S
Radarsat Rocket 4.5 06:11:40 19° SSE 06:17:19 88° ENE 06:25:30 10° NNW
Cosmos 2084 4.3 06:12:37 10° NW 06:16:41 56° W 06:16:41 56° W
Cosmos 1867 4.2 06:19:54 10° SW 06:23:54 50° SW 06:23:54 50° SW
SL-16 R/B 3.0 06:26:22 10° SW 06:31:52 48° WNW 06:33:22 38° NNW
Lacrosse 5 rocket 4.3 06:47:35 10° WSW 06:48:05 13° WSW 06:48:05 13° WSW
Cosmos 2360 Rocket 3.4 06:47:55 10° SSW 06:51:15 36° SW 06:51:15 36° SW
USA 281 4.2 07:08:10 37° SSW 07:09:31 41° SW 07:15:37 10° WNW
Cosmos 2322 Rocket 4.4 07:29:58 10° SW 07:33:15 21° W 07:33:15 21° W
